Wind_Speed
20 20 20 20 19 19 20 21 23 23 23 22 20 19 18 17 18 18 20 20 18 17 15 14 13 13 11 10 9 10 12 12 11 7 9 8 7 9 11 14 15 18 17 15 17 14 9 6 7 8 6 3 2 1 3 5 3 2 2 1 2 2 3 3 3 3 3 5 6 5 6 6 7 5 4 3 2 3 3 3 5 6 7 12 17 25 30 28
20 21 21 20 19 19 20 21 22 22 23 23 22 21 19 17 17 18 19 20 19 16 13 11 12 12 11 11 10 11 13 13 10 9 9 4 8 15 16 16 15 18 17 16 18 16 10 6 8 8 5 2 2 2 3 4 5 4 2 2 4 4 4 4 4 5 4 5 7 6 4 4 8 7 5 4 3 3 3 3 7 10 10 14 21 28 28 26
20 21 22 21 20 20 21 21 22 22 22 23 23 22 21 18 17 17 18 19 18 15 12 9 10 13 13 11 11 12 13 9 5 5 4 3 14 19 19 16 15 18 17 15 17 16 11 10 11 8 4 1 2 3 3 2 4 4 3 2 5 6 4 3 5 5 5 8 10 7 4 4 7 6 4 5 5 4 5 6 10 12 13 16 19 24 25 25
21 21 22 21 21 21 22 22 22 22 22 23 23 23 22 20 17 17 17 18 17 15 12 8 9 14 14 11 11 12 10 5 1 2 2 3 15 21 20 16 15 19 15 13 14 13 9 10 10 6 3 2 2 3 4 4 3 3 5 6 4 4 3 4 5 5 7 10 10 7 5 5 6 5 4 8 8 5 7 8 11 15 18 20 20 21 22 23
22 22 22 21 21 21 22 23 22 22 23 23 23 23 23 21 18 16 16 16 16 15 13 9 9 14 15 11 10 10 6 2 2 4 1 4 13 19 19 16 15 18 15 11 11 11 7 7 7 4 1 2 2 2 4 5 4 2 5 9 6 1 2 4 4 7 8 8 8 8 7 6 6 4 6 11 9 5 7 9 11 15 19 21 21 19 19 21
22 22 23 22 22 22 22 23 23 23 23 24 24 24 23 21 19 16 15 15 15 15 14 10 9 13 14 10 8 7 2 1 3 3 4 5 10 16 17 16 15 16 15 11 10 9 5 4 4 4 3 2 3 4 5 4 4 4 5 7 6 4 4 3 4 8 8 9 9 9 7 7 7 5 7 11 7 2 5 8 12 15 18 23 21 17 17 18
23 23 23 23 22 23 23 24 24 24 24 25 25 25 24 22 20 16 14 13 13 15 15 11 8 11 12 9 6 3 2 3 4 4 6 6 10 14 16 15 15 15 15 11 9 8 5 5 5 4 3 2 4 5 6 4 5 6 5 6 6 6 6 5 7 8 9 10 9 8 7 9 9 7 7 9 5 5 7 8 13 16 19 23 19 15 17 17
24 24 24 23 23 24 24 25 25 25 26 26 26 26 25 23 20 16 13 11 12 14 14 9 7 9 10 5 3 3 1 4 5 7 7 8 11 14 17 15 15 16 15 13 10 8 6 6 6 4 4 4 3 4 5 4 5 7 7 8 7 7 7 7 8 9 9 7 7 9 9 9 9 6 7 9 6 6 10 11 14 17 18 19 16 15 16 16
24 24 24 23 24 24 24 26 26 27 28 28 28 27 26 24 21 16 12 10 11 13 12 7 6 7 7 2 2 2 2 3 5 9 8 11 13 16 19 16 17 17 13 14 13 10 7 6 6 5 3 4 4 4 5 4 5 6 8 8 7 8 8 7 9 11 10 5 8 11 8 7 7 4 6 8 6 8 13 15 16 17 18 16 15 15 15 16
25 25 24 24 25 24 25 27 27 29 30 30 30 28 26 24 21 16 11 9 10 12 9 5 5 6 4 1 3 2 3 2 3 8 9 10 14 17 20 18 19 20 13 11 14 12 8 6 6 4 1 2 3 5 6 5 4 5 6 7 7 11 9 8 12 11 8 5 9 10 6 6 5 2 4 6 8 11 15 17 17 18 18 17 15 13 15 16
25 25 25 25 25 25 26 27 28 29 30 30 31 29 27 24 20 15 10 8 9 9 6 3 4 3 1 2 3 2 4 2 1 7 9 10 14 15 17 18 20 22 15 9 13 17 12 6 4 1 1 2 3 5 6 5 4 6 6 7 8 9 6 8 12 11 8 4 8 8 6 5 2 2 4 7 11 14 17 17 18 18 16 16 16 13 13 15
26 26 26 25 25 26 27 28 29 29 30 30 30 29 26 23 19 15 9 8 8 7 4 3 3 2 0 1 3 5 4 3 1 6 10 11 12 9 9 14 19 23 19 11 11 20 18 9 3 1 1 1 4 4 5 5 6 6 4 5 8 7 2 9 11 11 10 5 8 9 6 2 4 4 5 10 12 15 17 17 18 17 15 15 15 12 11 15
26 27 27 26 26 27 28 29 29 29 30 30 30 28 25 22 20 15 10 8 7 5 3 2 2 2 1 1 6 5 1 2 3 5 13 14 10 7 8 11 15 19 21 17 14 18 18 12 5 3 2 3 3 4 5 8 6 5 3 2 5 7 2 10 11 11 10 7 12 11 3 4 9 8 7 12 14 15 17 16 16 15 13 14 13 10 11 15
26 27 27 27 28 28 29 29 29 30 30 30 29 26 23 23 18 13 10 7 6 4 4 3 2 2 2 4 6 3 3 4 4 6 13 17 11 7 11 12 13 17 19 20 14 10 15 14 7 4 3 3 5 5 6 6 3 2 3 2 1 3 3 6 8 12 8 7 13 9 1 5 10 10 9 14 16 17 17 16 16 15 13 13 12 11 11 14
27 28 28 28 28 29 30 30 30 30 30 30 27 24 23 21 14 10 7 4 4 5 5 2 3 3 1 6 6 4 4 4 6 9 11 17 13 6 12 17 16 17 17 18 12 7 14 15 6 3 4 5 4 4 5 3 3 2 1 3 3 1 4 4 5 14 10 6 11 7 1 4 7 9 10 15 18 17 17 16 16 16 15 15 12 10 11 13
27 28 29 29 29 30 31 30 30 30 30 29 25 23 22 17 11 5 0 4 5 7 5 3 4 3 1 4 4 1 3 4 6 7 9 15 14 8 11 16 14 15 14 14 12 8 11 11 4 3 4 4 3 3 3 3 4 3 1 2 3 2 3 4 3 12 11 8 8 7 2 1 4 8 11 16 19 18 17 16 17 16 16 16 12 10 11 12
28 29 29 29 30 31 31 31 31 30 30 27 24 22 18 13 6 4 7 7 7 7 4 4 4 2 2 5 4 2 4 7 7 7 8 13 14 8 9 9 7 10 10 8 9 7 4 4 2 3 2 3 2 2 1 3 3 3 2 1 3 2 2 3 2 6 8 9 9 10 6 2 3 8 13 16 19 18 17 17 17 16 15 15 13 11 12 13
29 30 29 30 30 30 31 31 30 30 28 24 22 21 14 8 5 8 11 10 7 6 4 2 2 2 3 4 4 6 11 11 9 6 7 11 11 9 6 5 4 7 4 1 4 4 2 1 1 1 2 2 2 4 3 4 3 1 1 1 3 3 2 3 2 2 6 8 9 11 10 6 3 9 13 16 19 18 17 18 17 16 15 15 14 12 12 14
29 30 29 30 30 30 31 30 29 30 26 21 20 16 8 5 4 5 7 7 4 2 0 1 2 2 2 4 6 11 13 13 11 7 6 8 8 7 4 3 5 7 4 1 1 3 3 1 0 1 2 3 3 4 5 5 4 3 2 1 3 4 4 4 3 2 5 6 7 9 11 9 6 10 13 14 18 17 16 16 14 14 15 15 14 12 13 15
29 29 28 29 29 29 30 29 28 28 21 18 20 12 5 5 3 2 3 1 3 3 3 3 4 2 4 5 7 10 12 10 6 4 5 7 8 7 3 3 5 5 3 4 2 2 4 2 3 4 4 4 4 4 6 6 4 3 3 3 4 4 6 5 3 4 5 5 6 9 12 11 10 13 15 15 17 17 16 16 14 14 15 15 16 15 15 15
29 28 28 29 28 29 29 27 27 23 15 16 17 7 1 2 2 3 6 4 5 6 6 6 6 6 8 8 9 7 7 5 4 2 3 5 6 6 1 3 5 2 2 4 2 0 3 4 5 5 6 6 5 4 5 5 5 5 4 4 5 4 6 6 4 6 5 4 6 8 10 12 11 14 16 16 17 18 18 18 18 18 17 16 17 17 16 13
29 28 28 28 28 28 27 26 25 16 12 15 12 3 1 3 3 5 4 5 7 6 7 6 5 7 10 11 16 9 0 3 6 6 3 5 3 3 1 3 5 2 2 2 3 2 1 4 6 7 6 5 4 4 4 5 5 5 4 3 5 3 3 6 5 5 3 3 4 6 8 11 12 13 17 19 18 17 19 20 20 20 18 16 17 17 16 14
28 28 28 27 28 27 25 26 19 9 12 14 7 3 5 9 8 6 3 3 7 4 4 4 4 5 6 7 11 5 4 4 3 5 3 6 1 3 4 4 5 2 1 3 4 3 2 4 7 7 4 3 5 5 4 4 4 4 4 3 5 3 1 3 4 5 3 2 6 6 5 6 7 9 13 18 17 14 17 19 17 17 18 18 19 17 17 17
29 29 28 27 28 25 25 24 11 7 13 9 3 6 12 14 12 9 4 1 4 5 4 6 5 4 4 5 4 5 4 3 3 3 5 8 2 2 4 4 5 2 2 4 6 5 4 7 6 5 4 4 5 6 4 4 3 4 6 6 7 5 3 5 5 6 6 4 6 5 2 3 5 10 11 11 12 11 13 15 14 14 16 15 15 15 16 17
29 29 28 27 25 24 25 16 5 10 13 3 2 10 14 15 14 10 5 2 3 6 3 3 2 2 3 3 4 4 2 1 3 3 5 8 5 3 2 2 4 3 5 4 6 4 7 7 3 3 5 5 5 6 5 4 3 5 6 9 10 7 5 7 6 5 5 5 4 3 2 4 4 11 12 9 10 11 11 13 14 14 14 13 12 14 16 16
29 28 27 25 22 24 20 6 6 16 10 2 5 12 12 14 15 8 3 3 2 4 1 1 0 2 2 1 2 3 4 2 5 3 4 6 5 4 2 1 1 3 5 3 3 3 4 4 3 5 6 6 6 7 5 5 3 4 5 8 9 7 6 8 6 2 1 4 4 2 3 3 4 7 10 10 12 13 11 13 14 13 13 14 14 14 15 15
30 27 25 22 20 21 13 3 10 13 3 1 10 12 11 15 12 5 3 4 2 2 0 1 0 1 1 1 2 5 3 4 3 1 3 5 2 3 3 2 0 1 3 3 2 3 2 2 1 4 4 4 4 5 6 7 5 5 6 6 6 6 6 7 5 4 4 4 5 3 4 2 2 6 10 10 10 11 10 12 14 13 15 16 15 15 15 16
29 25 23 20 17 15 9 7 12 7 0 6 12 12 14 14 7 3 4 2 2 2 1 1 1 1 2 1 2 4 3 3 2 1 1 4 2 4 3 4 4 4 1 5 2 5 1 1 2 4 4 3 4 7 8 7 6 9 9 6 5 6 6 6 5 4 2 1 6 5 2 2 4 4 8 10 10 11 12 14 16 16 17 16 15 15 16 16
26 23 21 19 15 8 5 7 7 3 4 9 12 14 14 8 4 4 3 1 1 2 0 1 1 1 2 2 2 2 1 0 2 3 1 5 6 5 2 4 5 4 1 4 4 5 2 3 5 5 3 4 5 8 9 7 7 10 7 5 4 4 5 4 3 3 1 2 5 7 3 3 4 4 6 9 10 12 14 14 16 16 15 15 14 15 15 14
24 21 20 18 11 3 3 7 6 3 8 11 13 14 9 4 4 4 1 1 1 2 1 1 2 1 2 3 2 3 1 1 1 1 3 5 9 8 2 0 4 4 1 2 2 4 4 3 3 2 1 5 6 6 6 8 9 9 3 3 4 2 2 1 1 1 2 1 6 8 4 4 3 4 4 8 12 15 14 12 14 14 14 15 15 14 15 15
22 19 16 14 8 3 3 5 4 7 9 12 14 10 4 3 3 4 1 1 2 2 2 2 2 1 1 3 0 2 1 1 3 4 5 5 8 9 6 4 4 4 4 4 2 3 5 4 1 1 3 3 3 3 2 3 5 4 2 1 2 3 1 1 4 1 3 4 7 7 3 4 3 5 4 10 16 18 16 14 16 18 18 18 16 15 16 15
20 16 12 10 9 6 4 4 7 9 10 12 12 5 4 2 3 2 1 3 2 2 3 3 2 1 1 3 2 0 2 2 4 6 4 3 6 6 6 3 2 2 3 2 2 4 3 2 3 3 5 8 5 3 5 6 4 3 0 3 2 2 1 0 2 1 4 5 5 5 1 2 4 6 6 11 16 16 16 16 17 19 20 18 17 16 15 13
18 13 10 10 10 10 9 8 10 10 12 13 7 4 5 4 3 2 3 3 1 2 2 2 3 1 1 4 2 1 4 4 3 5 4 4 5 5 5 6 5 3 2 1 2 4 2 2 7 6 5 6 5 3 4 4 5 4 1 4 4 2 1 2 3 1 2 4 5 4 1 0 3 5 6 12 15 15 15 15 15 17 17 17 16 16 14 13
16 13 12 12 12 12 10 9 10 10 12 9 3 4 5 4 1 3 3 2 2 2 3 3 3 3 4 4 1 1 5 5 4 6 4 4 5 4 5 9 11 4 2 3 3 2 2 1 5 5 3 5 4 3 2 4 3 4 3 5 3 4 4 3 3 2 3 3 3 2 1 2 3 3 6 9 11 11 12 12 12 12 13 13 12 12 12 12
14 13 12 11 11 10 7 7 8 9 8 4 5 5 6 3 3 2 2 4 3 2 4 3 4 6 5 5 4 2 3 3 4 7 6 4 4 4 4 6 9 6 3 3 1 1 3 1 4 3 2 3 6 4 3 2 2 4 1 3 1 1 2 2 3 5 4 1 2 1 2 3 4 2 9 8 8 7 7 9 10 11 12 12 11 11 12 13
14 12 9 9 10 6 4 5 6 6 4 4 6 5 3 2 2 1 1 3 2 3 4 5 7 6 4 4 5 6 4 3 2 4 5 4 4 5 5 3 6 6 3 2 1 2 3 2 5 3 3 5 6 3 4 6 1 2 3 1 5 4 2 1 2 1 3 2 2 2 1 4 2 6 15 17 16 15 10 6 9 13 13 13 13 13 14 14
15 11 6 9 10 5 3 4 4 4 3 5 7 3 1 0 1 1 3 2 2 2 3 4 5 4 3 3 4 7 5 4 2 3 3 3 3 5 6 4 5 7 3 2 1 1 2 3 5 4 3 6 7 2 6 9 3 1 2 4 7 2 2 1 1 2 4 2 3 1 3 4 5 4 10 18 19 18 17 13 9 10 12 14 14 15 16 17
13 9 4 10 12 6 3 2 3 3 4 5 6 5 1 3 5 3 4 3 2 3 5 3 2 3 1 1 3 6 5 3 3 3 3 2 2 2 4 4 4 7 7 3 2 1 2 1 5 5 3 5 6 4 3 7 8 3 1 4 4 2 1 2 1 1 2 3 3 3 3 4 5 4 9 15 16 16 18 18 16 12 10 13 15 17 18 18
11 6 2 12 16 8 3 1 3 4 5 5 4 3 3 4 6 6 5 4 4 4 5 3 2 3 2 2 2 5 6 4 3 3 3 2 2 2 3 2 3 6 7 6 3 1 2 2 3 5 6 5 4 6 4 6 9 6 3 5 5 2 1 2 0 2 1 3 3 2 3 2 2 4 8 11 12 14 17 18 17 16 12 13 14 15 17 17
7 3 1 15 18 6 3 2 3 5 4 3 2 2 3 2 4 8 8 7 5 4 4 3 2 3 3 3 3 4 5 5 4 4 3 3 2 2 5 3 4 5 4 6 5 1 2 3 2 6 7 5 3 4 4 4 6 7 7 8 7 4 1 1 1 2 1 2 2 1 3 1 3 4 7 8 11 12 15 16 16 17 14 11 15 14 15 16
5 3 3 18 17 1 2 3 3 3 2 1 1 2 4 2 3 8 9 8 6 4 3 4 4 4 3 4 4 4 4 4 5 5 3 3 3 2 5 4 4 5 3 5 5 3 2 2 0 3 5 3 1 3 3 3 5 6 6 6 5 5 4 2 2 3 1 2 0 1 2 4 3 5 7 7 10 11 13 16 15 18 20 12 10 14 14 15
5 2 5 21 17 1 2 5 2 1 3 3 3 2 3 3 3 6 7 7 6 5 5 4 5 5 4 4 4 4 4 4 5 4 4 4 5 2 6 6 4 3 3 2 2 2 1 3 2 2 2 2 4 4 5 7 5 6 7 6 4 4 5 3 1 4 3 3 2 1 2 4 1 7 8 8 10 11 12 15 16 17 20 18 12 8 10 14
3 0 7 21 18 2 5 6 4 3 4 2 3 4 4 4 4 6 6 7 6 5 5 6 5 5 5 4 4 4 4 4 5 5 3 3 4 2 6 7 4 3 3 2 2 3 2 3 3 3 3 4 4 3 5 9 7 5 6 7 5 4 4 1 2 2 1 3 3 3 1 4 2 8 9 8 11 12 13 15 17 16 17 19 19 16 10 7
1 3 5 18 22 10 6 3 2 4 4 3 5 5 4 5 6 7 7 8 6 3 4 5 5 4 4 4 6 6 4 4 5 5 3 2 3 4 7 9 6 3 3 0 1 2 2 2 3 3 3 5 6 5 5 7 8 4 4 7 6 6 7 4 1 1 2 3 4 2 2 5 5 8 8 10 13 13 13 14 15 15 16 18 18 17 17 15
2 0 4 11 20 13 5 2 3 3 2 5 7 6 4 5 5 6 7 7 7 5 4 3 3 2 3 5 8 9 8 6 3 3 3 3 3 4 8 10 7 3 3 2 2 3 3 2 3 4 3 1 0 2 3 5 5 3 5 8 8 8 9 5 3 4 2 2 4 1 3 7 10 9 10 12 13 13 14 15 15 14 15 16 17 17 17 17
2 2 3 6 10 8 3 1 3 4 2 3 5 5 5 4 4 6 8 6 5 6 6 4 3 3 5 6 7 8 10 8 4 3 3 4 3 3 5 8 10 9 8 9 7 4 3 3 3 6 5 4 4 3 4 3 3 3 7 9 8 8 7 3 3 2 1 3 5 3 3 7 14 13 11 11 11 12 13 14 15 14 14 15 15 16 16 15
2 1 2 2 4 4 4 5 4 3 2 2 3 3 5 5 4 5 7 5 4 4 5 6 7 6 4 4 6 5 5 5 5 4 3 4 3 3 5 5 10 14 12 8 6 4 4 3 3 5 3 4 6 5 4 3 2 3 6 8 7 8 7 4 2 2 2 2 5 5 1 7 12 11 9 9 9 10 11 13 13 12 13 14 14 16 19 18
2 1 1 1 1 2 2 3 4 6 6 4 3 3 4 7 6 4 4 3 4 5 3 5 9 8 5 4 5 3 3 4 5 3 3 4 3 4 6 4 6 11 10 5 4 4 5 2 2 4 2 2 3 2 1 1 2 3 4 6 7 7 7 5 3 4 1 1 5 8 6 6 8 8 9 9 8 8 9 11 12 12 14 14 14 17 18 18
2 1 2 1 2 0 1 2 3 7 8 5 4 4 4 6 6 4 3 2 4 6 4 4 6 7 7 6 5 4 3 3 3 2 1 3 3 3 4 3 3 6 7 5 4 2 4 1 2 4 3 1 1 1 2 3 3 4 4 6 7 7 6 5 4 4 3 3 6 7 7 5 4 7 8 8 8 7 8 10 12 15 16 15 15 15 15 15
2 1 3 3 3 2 3 3 3 6 6 4 3 4 4 5 4 3 3 3 3 4 4 5 5 4 6 7 6 5 2 4 4 1 1 2 2 2 1 1 2 5 6 4 3 3 3 1 0 4 3 2 2 1 3 3 2 3 5 6 6 6 5 4 4 4 4 3 6 7 6 4 6 7 5 6 7 7 10 12 13 13 14 15 15 15 14 14
2 1 0 3 3 5 4 3 3 4 4 4 2 2 3 3 2 1 3 3 3 2 1 5 6 4 4 6 6 3 2 5 5 3 4 4 2 2 1 2 2 4 5 2 2 3 3 1 2 5 4 4 3 4 5 3 3 3 3 4 6 5 4 5 5 3 4 4 7 6 5 4 7 7 5 6 9 10 12 12 11 11 12 14 14 14 14 13
6 1 2 4 2 5 4 3 4 4 2 2 1 2 2 2 2 3 3 3 2 3 3 5 6 4 3 6 5 1 4 5 5 5 5 5 4 4 4 4 3 2 0 1 1 1 2 2 1 3 2 4 4 4 5 5 5 3 2 3 4 4 5 6 4 6 7 4 4 4 3 4 7 8 7 7 9 10 10 10 9 9 10 11 12 13 13 13
Wind_Direction
348 348 347 349 354 356 355 359 1 2 4 2 1 359 355 355 353 353 353 350 345 341 345 349 353 354 351 343 324 320 321 310 304 260 232 258 229 191 176 169 157 146 150 164 161 152 151 154 167 167 152 152 191 220 199 223 226 197 196 198 254 236 202 222 193 171 147 145 152 169 184 154 145 155 141 129 25 71 78 42 101 99 108 128 133 144 151 153
348 348 347 347 349 352 353 354 357 359 1 1 1 358 355 354 352 352 350 348 344 341 347 353 357 355 350 343 328 324 325 313 298 259 245 238 163 166 164 160 157 154 151 157 162 156 151 156 164 161 141 139 199 189 176 195 198 205 190 174 232 215 208 226 167 152 143 146 151 162 193 161 146 151 158 161 141 123 98 72 111 111 118 126 136 148 156 154
347 347 348 348 348 349 350 351 353 355 358 359 360 358 356 353 351 351 350 347 343 340 344 353 358 354 346 333 328 329 324 318 296 267 289 155 158 160 160 162 166 168 163 161 168 167 163 159 156 149 135 167 214 199 205 200 186 204 200 216 243 217 234 259 163 162 150 141 146 162 182 150 144 142 164 160 135 158 172 153 141 138 142 141 145 155 158 153
345 346 347 349 349 349 348 349 350 352 355 356 357 357 356 353 350 349 349 345 341 338 336 340 347 352 349 329 327 332 324 331 286 254 356 142 162 160 163 166 170 177 172 158 167 174 159 145 150 149 137 187 227 214 231 231 197 192 195 221 247 191 224 253 181 157 140 143 149 155 150 139 142 139 162 147 133 189 201 178 161 154 153 150 154 161 158 152
343 343 344 347 349 348 348 348 348 350 352 353 354 355 355 354 349 346 347 344 341 337 332 325 327 344 346 331 328 330 335 52 239 240 187 163 167 166 167 163 165 178 175 156 163 169 153 131 142 160 163 196 194 197 230 223 215 246 227 235 260 166 224 251 178 147 140 141 144 149 154 145 138 151 170 161 167 204 189 178 166 157 155 154 159 161 155 153
341 342 343 344 346 346 346 347 348 348 349 350 351 352 353 352 349 345 344 341 339 336 332 323 317 333 338 332 329 329 10 133 242 219 192 179 173 175 171 163 159 171 179 172 164 160 151 121 131 169 180 198 199 214 240 217 198 248 261 251 259 242 243 248 154 151 145 145 158 162 156 138 141 167 176 179 194 164 154 167 157 157 156 154 160 159 156 158
340 342 342 342 344 343 343 345 346 346 347 347 347 349 349 348 348 345 340 338 336 334 331 323 315 328 334 334 329 350 65 258 238 176 194 183 174 179 171 167 162 168 179 175 162 157 154 146 148 166 171 205 215 225 251 246 212 229 261 272 266 246 239 214 161 160 161 164 168 153 140 150 163 166 169 193 205 136 158 164 147 154 155 156 162 160 159 161
339 342 342 343 343 341 343 344 344 344 345 345 344 345 346 345 345 342 338 336 331 332 331 321 317 327 335 344 343 2 339 251 203 175 193 175 172 175 169 169 173 176 184 184 176 161 160 165 168 165 178 217 230 238 254 260 242 234 246 265 269 256 240 205 168 166 172 169 150 144 151 171 174 151 167 195 195 156 161 154 145 151 156 162 169 162 159 162
340 342 342 344 343 342 343 343 343 344 343 343 342 342 343 341 341 340 335 330 327 330 331 322 318 328 336 357 65 18 218 207 181 181 181 170 170 173 177 179 182 185 187 193 187 170 173 180 185 181 179 226 254 275 268 255 245 229 236 257 265 268 252 188 167 173 176 166 149 154 160 171 171 143 170 188 175 157 152 149 148 153 161 169 172 165 161 164
339 342 343 344 344 343 344 343 343 343 342 341 340 340 341 338 337 336 329 325 325 327 331 320 316 331 338 10 93 87 199 193 211 191 175 171 167 170 184 188 186 188 185 187 187 183 188 177 179 193 189 267 251 258 258 236 249 253 256 273 261 266 259 174 168 177 169 169 166 159 151 158 175 187 186 176 155 150 148 150 154 158 167 172 174 169 164 168
340 341 343 345 345 345 345 344 343 342 341 339 338 338 338 336 335 334 326 318 317 325 327 309 319 326 333 89 113 204 205 158 231 201 182 178 174 174 188 193 188 188 184 180 193 196 199 186 162 177 205 271 290 285 267 236 288 296 283 301 279 272 264 173 170 174 157 175 177 140 109 125 150 266 200 163 153 152 151 155 159 164 170 174 175 170 166 172
342 341 344 346 346 347 346 344 342 341 339 337 336 336 336 336 334 329 318 307 306 313 305 286 313 282 200 79 193 213 182 113 331 225 205 195 192 190 189 193 192 193 189 181 202 205 201 199 195 287 240 344 330 299 282 280 309 294 272 303 294 311 290 178 172 172 165 166 161 124 82 133 200 224 175 152 155 154 156 159 163 169 171 174 177 169 169 174
344 344 346 346 347 348 346 344 342 340 338 335 334 335 336 336 332 321 305 296 294 291 264 241 272 243 126 250 228 216 214 310 312 246 219 209 206 210 199 194 195 200 200 196 206 207 200 198 207 266 302 344 306 263 284 298 303 281 264 281 289 338 333 191 174 170 173 162 164 149 108 225 216 218 170 151 157 154 158 165 166 171 172 175 179 170 169 174
345 346 347 348 349 348 346 344 343 340 337 335 333 335 338 338 329 310 297 285 274 247 211 218 236 171 142 265 258 254 298 297 270 241 223 211 207 212 203 197 196 203 208 208 207 201 196 198 210 270 289 256 256 281 303 305 312 288 287 320 297 329 289 219 171 163 166 169 178 170 161 221 215 216 179 157 162 158 163 170 169 173 174 177 181 174 171 174
346 347 348 349 349 348 346 344 343 341 337 336 335 338 342 341 328 308 294 255 224 190 185 188 179 151 34 284 278 262 260 279 248 231 220 210 204 204 201 199 202 204 207 210 203 179 184 187 195 249 262 245 239 288 311 329 344 343 286 314 331 255 269 285 181 172 164 166 191 186 171 230 217 205 178 162 164 162 166 173 173 175 176 179 182 178 173 173
346 348 348 348 348 347 345 344 344 342 338 337 337 341 346 342 334 329 312 165 161 161 156 128 163 156 58 285 300 281 219 263 258 232 218 212 209 211 196 193 203 205 210 215 207 198 182 175 184 212 237 259 220 237 306 352 339 354 95 260 292 284 296 325 210 192 171 145 192 213 189 218 222 192 171 166 167 165 168 174 177 178 178 181 182 181 177 173
346 348 347 347 347 346 344 343 344 342 338 337 339 343 347 348 357 74 104 114 131 141 126 111 145 148 275 285 317 336 292 285 265 239 218 214 214 208 173 170 188 195 206 219 208 210 185 168 218 223 240 264 188 148 330 300 295 324 10 259 267 271 287 310 284 216 181 148 184 217 220 245 233 181 168 171 171 168 172 176 179 179 181 183 181 182 181 179
345 346 346 345 344 343 342 342 343 342 337 336 343 344 346 8 62 100 101 102 109 110 92 94 114 100 256 288 315 285 298 300 281 254 206 202 208 197 159 150 145 149 162 207 183 185 174 177 205 251 294 262 175 125 160 228 206 198 302 344 296 299 282 262 297 235 189 176 188 204 221 245 227 179 174 175 172 172 178 177 179 180 181 185 183 183 184 185
343 344 344 342 341 340 339 339 343 342 336 336 345 348 358 38 76 105 98 106 109 98 112 188 161 128 241 269 290 285 297 304 293 270 196 180 182 172 137 121 112 114 124 103 165 184 168 163 84 208 252 233 205 162 174 213 190 173 229 228 254 292 287 250 257 247 179 187 213 203 216 223 192 186 185 178 173 176 180 178 179 181 182 186 187 187 185 188
342 342 341 339 338 337 335 337 340 340 339 343 347 355 26 25 18 351 343 207 199 223 235 216 190 233 286 269 283 300 315 313 282 243 190 170 152 137 78 45 67 73 126 145 182 215 151 159 229 216 218 221 224 191 185 223 248 262 283 269 256 264 281 273 259 254 178 179 237 217 218 218 189 187 189 180 176 177 180 181 184 185 185 188 189 190 188 190
342 341 339 337 336 334 332 334 338 339 344 350 355 12 110 2 6 314 319 296 249 226 230 233 206 239 262 256 274 306 347 329 298 319 184 166 133 131 26 23 75 61 227 163 146 54 143 185 231 226 215 218 230 213 198 231 263 274 270 282 285 251 266 280 260 257 219 188 247 227 222 228 200 186 186 181 179 182 183 183 186 188 188 190 191 191 190 188
343 342 338 335 334 332 330 333 337 339 348 356 6 49 199 327 328 278 293 314 285 224 211 240 228 251 259 258 267 267 73 283 304 331 158 138 80 142 163 71 120 183 256 130 85 53 191 227 241 235 221 219 245 243 223 235 250 263 267 281 286 265 289 291 271 274 234 173 257 232 213 230 212 187 185 185 185 186 186 186 187 187 187 191 192 191 189 185
344 342 338 334 332 329 328 333 336 343 353 358 13 27 352 354 346 312 295 300 293 255 200 215 207 243 267 270 263 226 160 214 268 306 185 137 80 169 126 101 144 177 128 127 132 140 204 248 241 236 227 221 253 262 250 257 262 251 251 259 268 266 23 293 291 308 293 225 254 242 223 236 206 187 193 193 191 187 187 190 187 186 189 192 193 190 187 185
342 342 338 333 330 327 328 333 339 357 351 354 32 9 2 1 358 351 351 249 291 292 224 199 194 211 233 266 256 159 158 202 188 265 188 141 129 151 131 135 138 138 203 169 152 160 225 241 230 221 215 208 243 275 267 253 270 249 232 229 251 260 208 230 270 305 312 286 242 222 285 289 178 184 203 198 197 194 187 189 187 191 195 193 192 191 190 189
341 340 337 333 329 324 327 332 354 355 347 8 44 356 359 358 359 3 10 60 310 292 238 198 215 219 226 252 234 178 150 229 218 231 174 149 145 128 125 140 129 185 229 181 146 177 243 238 194 189 215 200 217 260 247 207 246 273 242 221 233 250 239 245 273 321 342 315 257 135 66 298 212 191 199 187 196 201 190 191 190 191 195 192 192 193 194 193
340 338 337 335 329 326 331 340 350 345 348 103 357 348 350 351 357 9 33 53 338 291 275 47 169 212 254 232 197 123 78 295 255 220 158 156 147 115 122 217 94 194 211 178 151 192 251 241 163 186 219 203 206 242 233 186 201 273 244 210 218 230 238 254 269 299 277 262 276 86 119 267 260 206 202 191 196 198 191 197 197 191 193 196 195 193 192 191
339 339 339 336 333 333 333 312 328 338 7 0 340 342 344 347 357 24 60 43 346 292 284 295 313 142 245 193 117 95 106 268 273 116 160 164 145 65 112 214 232 193 199 106 114 216 248 306 183 181 206 206 206 240 230 179 175 254 241 199 200 202 218 243 237 216 225 251 298 344 129 169 247 213 198 191 199 202 198 202 202 200 199 199 199 195 193 191
341 343 340 334 335 329 304 292 320 334 76 327 334 337 342 348 3 75 84 59 283 271 173 252 292 288 271 281 86 112 190 237 119 284 253 125 71 44 99 213 184 184 213 102 142 251 228 116 182 154 162 202 208 231 228 174 179 249 246 219 205 190 205 227 220 227 245 272 298 304 137 153 273 230 181 181 196 205 208 207 205 205 203 201 200 197 195 193
344 347 339 332 336 328 293 288 294 302 320 325 334 336 342 358 33 74 80 102 280 300 35 343 311 269 305 9 36 56 30 42 144 253 305 71 26 30 124 213 159 157 250 119 173 254 236 188 188 149 157 203 216 235 225 177 200 247 252 237 234 205 210 227 226 234 97 108 256 266 200 173 281 264 169 176 198 208 210 208 207 207 204 203 202 200 198 195
347 347 337 332 340 354 316 291 273 317 334 328 331 332 349 43 66 64 57 113 26 304 288 320 305 337 60 65 359 349 63 254 257 16 33 40 19 21 49 194 102 117 353 50 182 251 277 257 199 147 203 218 229 243 217 199 224 246 269 269 268 275 198 201 321 172 141 233 251 249 213 163 263 275 182 181 202 208 209 208 207 204 202 205 204 201 199 196
349 347 336 330 337 324 291 298 315 343 334 327 329 335 30 59 59 90 91 46 43 324 330 305 286 339 122 129 70 318 103 309 332 53 39 19 26 25 20 15 43 56 15 5 325 304 334 355 340 312 11 9 300 294 285 261 253 246 253 213 265 317 40 74 2 65 171 252 258 249 220 141 198 263 220 206 209 206 205 205 202 199 201 203 202 201 200 197
352 350 335 324 323 305 280 304 332 330 322 324 331 3 82 43 26 88 289 342 21 323 307 281 275 275 208 112 76 280 96 19 11 71 76 42 41 44 49 33 356 42 18 330 321 350 1 15 336 325 31 33 18 351 341 337 11 35 70 125 132 300 334 159 295 213 196 248 249 232 204 135 221 251 224 216 221 214 208 208 202 200 204 203 200 201 200 196
355 351 336 319 311 306 303 311 318 313 312 323 343 56 82 79 48 11 322 342 356 261 277 280 297 305 106 79 61 58 63 33 19 59 69 72 59 44 44 24 16 91 117 335 21 10 347 325 353 4 6 12 37 51 356 324 350 3 147 133 145 180 148 228 252 250 226 257 255 230 199 222 267 274 229 214 224 220 212 211 205 202 205 204 203 203 201 197
354 345 332 316 308 312 313 310 309 303 309 327 39 77 65 80 26 351 3 316 260 277 310 303 318 357 49 58 44 99 62 27 27 51 36 50 54 14 9 12 9 32 106 55 53 50 70 326 352 13 327 335 25 57 237 235 281 297 207 149 150 164 154 207 213 199 225 251 289 265 180 171 195 271 257 233 241 234 216 212 201 200 206 202 203 205 206 205
349 341 335 325 324 331 324 308 306 303 311 1 73 73 70 82 279 331 354 291 289 328 327 345 26 33 23 4 349 20 86 54 40 58 47 51 62 6 351 0 357 4 67 62 27 29 75 230 275 293 263 350 8 327 278 213 233 277 260 105 72 205 180 224 184 174 187 137 346 245 202 216 194 358 349 336 323 305 247 217 195 196 203 194 195 200 203 207
346 345 344 335 341 348 319 300 300 304 323 61 70 60 85 132 239 223 301 295 305 317 334 11 34 40 12 352 350 343 22 84 89 73 52 54 66 17 355 346 348 0 45 99 61 13 50 269 284 323 338 355 349 306 34 49 237 274 26 10 273 248 181 222 242 190 92 99 273 227 226 297 308 31 9 3 357 350 335 281 219 207 199 189 195 200 200 203
350 353 346 338 348 347 303 300 297 321 15 77 77 70 180 121 88 241 300 317 305 333 45 44 25 36 6 0 357 333 354 50 57 63 44 26 39 5 342 330 351 5 6 116 129 69 98 265 305 7 345 322 327 313 62 45 17 49 43 302 291 277 135 134 202 12 55 126 272 298 102 7 12 24 359 3 359 349 344 333 294 242 207 193 199 201 200 202
356 356 346 351 349 321 284 323 321 0 56 68 68 73 60 22 25 352 320 334 353 26 62 74 42 47 38 44 0 334 2 32 9 51 65 28 42 16 346 323 349 4 352 30 84 23 62 291 304 1 340 304 341 10 35 11 6 38 212 302 350 78 68 0 105 128 104 151 273 317 80 53 22 350 352 4 357 341 340 337 324 298 241 207 204 202 201 203
11 16 13 1 353 324 278 320 341 27 61 59 58 66 46 25 17 6 353 12 43 51 55 64 62 46 35 63 356 344 31 49 20 61 72 41 59 14 1 316 321 359 4 38 73 283 22 55 282 328 339 325 6 31 17 336 346 10 26 6 16 106 167 321 109 150 153 156 215 294 34 37 325 338 355 3 358 351 345 336 328 316 278 228 214 207 201 202
22 52 346 352 356 336 274 305 13 42 63 71 91 74 39 24 353 6 20 34 46 56 49 32 36 50 27 25 25 13 40 46 38 64 59 40 84 358 5 357 321 344 22 50 55 9 26 58 273 309 339 8 34 20 4 334 350 14 33 26 4 345 344 317 7 39 86 124 184 121 66 259 261 350 357 4 14 8 353 340 333 330 313 255 225 217 206 203
31 74 329 350 360 322 235 3 23 45 64 46 69 74 52 57 355 1 14 33 51 63 71 63 48 52 39 25 27 17 40 48 35 58 61 36 74 44 2 3 335 336 18 42 32 21 25 60 53 330 352 31 0 321 355 58 66 58 50 32 5 355 18 43 5 346 35 71 318 120 120 238 260 12 353 6 27 18 3 355 347 347 346 324 252 229 216 208
48 80 331 356 4 213 109 35 350 38 66 36 25 39 42 56 36 3 0 23 45 37 37 53 47 40 36 37 35 21 50 55 22 47 80 43 57 47 330 334 350 9 51 55 339 315 75 84 62 358 326 291 262 289 39 67 81 76 59 33 9 17 36 60 348 312 341 7 316 95 126 225 243 21 0 8 23 16 14 11 3 358 355 354 342 292 242 220
60 274 332 4 13 79 93 38 342 16 42 16 27 36 35 40 20 7 12 26 36 30 29 33 32 40 33 24 41 39 47 58 31 40 84 45 33 13 329 335 354 34 58 50 326 324 40 57 30 343 318 325 300 301 40 53 50 48 33 16 11 17 11 353 217 239 350 17 5 21 346 242 330 13 6 12 16 11 14 15 14 9 1 0 3 359 341 285
111 242 307 7 21 52 94 62 7 32 24 29 49 36 35 50 33 23 33 34 26 31 51 31 18 39 35 24 52 47 34 70 52 26 48 58 355 344 360 2 8 49 66 139 253 0 23 44 53 41 8 357 354 340 356 27 31 20 356 1 359 356 357 354 335 38 43 45 43 35 263 268 323 357 6 14 17 14 10 13 18 18 11 4 2 8 10 4
25 341 267 352 18 41 86 144 126 98 32 48 56 30 22 48 38 34 48 52 39 42 63 25 344 28 36 38 57 46 38 63 68 10 20 24 338 336 2 10 16 59 78 65 89 85 63 57 85 96 101 143 18 351 324 339 352 341 344 355 352 351 359 9 27 32 23 350 13 104 227 291 318 343 8 12 16 15 6 10 17 17 17 12 5 7 13 15
50 41 310 329 7 33 45 20 101 108 49 62 64 31 26 37 14 19 41 54 42 47 62 25 341 32 31 38 64 50 41 52 60 55 27 356 338 321 343 12 25 30 39 40 43 79 94 52 83 122 132 166 181 207 264 298 326 326 338 346 347 346 350 24 55 35 268 331 335 217 194 324 323 336 1 7 15 18 7 9 14 11 15 17 11 8 11 16
83 69 359 335 346 10 18 5 33 62 30 71 82 29 30 42 20 7 23 34 23 44 65 30 22 44 28 36 75 51 30 49 51 54 23 342 327 319 332 24 36 24 24 25 21 65 93 62 85 117 142 184 181 210 256 288 312 311 327 334 335 337 345 22 39 273 230 16 315 266 332 341 313 322 354 360 11 20 13 11 12 9 12 16 14 13 12 14
69 126 0 88 346 352 23 358 25 50 34 41 68 41 43 53 47 23 6 11 21 32 65 37 30 45 41 50 91 57 10 47 43 25 2 347 339 339 345 9 37 26 23 7 0 72 103 111 128 120 143 206 186 214 281 3 319 312 327 323 323 332 337 345 321 284 263 157 260 282 314 315 302 333 1 357 3 22 20 12 13 14 12 10 14 17 14 11
54 67 318 32 82 171 327 334 40 58 37 28 45 32 46 58 50 27 352 8 27 17 48 70 40 44 47 47 86 79 37 68 49 350 354 10 343 341 352 338 354 19 25 15 1 72 107 101 142 124 116 256 265 307 29 38 4 341 325 306 311 317 312 313 318 322 328 241 247 287 305 304 337 5 8 357 359 24 33 23 21 21 14 6 10 18 14 8
60 74 319 10 40 0 345 352 43 63 35 26 46 23 34 55 41 21 18 49 65 3 21 83 85 76 65 55 72 83 98 133 125 231 180 95 341 320 358 300 305 352 12 23 357 10 67 48 9 92 77 312 297 355 26 45 30 323 293 288 309 321 320 328 328 335 348 309 298 319 328 345 359 2 14 14 11 28 34 27 25 22 14 9 11 14 10 5
20 222 1 75 32 355 355 359 39 72 36 17 42 14 15 29 15 53 38 34 92 95 71 111 107 86 63 57 66 83 180 158 153 216 206 167 192 210 194 244 282 341 357 18 354 4 54 19 356 61 49 304 312 357 354 12 31 349 326 337 344 342 340 333 327 6 28 334 314 338 13 4 338 341 12 25 25 33 31 24 23 22 16 14 12 10 6 2
16 330 61 96 76 1 1 3 26 68 54 348 12 41 31 356 340 77 76 359 28 112 141 138 112 86 51 40 35 320 232 205 199 224 213 191 197 197 194 214 211 203 267 20 347 322 109 98 49 79 63 294 299 341 354 15 25 4 346 348 330 338 357 349 355 26 22 354 331 4 31 353 335 351 18 24 27 34 31 24 20 16 17 18 14 9 4 360
Height
807 805 803 802 800 799 797 796 795 793 792 790 789 788 786 785 783 782 780 778 777 775 773 772 770 770 769 768 767 766 765 764 763 763 761 753 750 752 754 756 756 757 759 761 763 765 768 770 772 772 775 776 778 779 778 776 775 782 792 801 803 799 793 781 778 778 778 782 783 781 778 782 787 784 780 780 783 784 785 782 779 781 782 783 786 790 793 795
806 805 803 801 800 798 796 795 794 792 791 790 788 787 785 784 783 781 780 777 776 774 773 772 770 770 768 767 766 765 764 762 761 760 754 749 749 751 753 755 756 757 758 760 762 763 766 770 771 772 775 779 779 778 779 776 776 785 792 799 798 789 780 770 769 770 772 777 779 778 776 778 781 781 779 785 790 788 790 788 783 788 788 786 787 791 794 795
805 804 802 800 799 797 796 794 793 791 790 789 787 786 785 783 782 781 779 777 775 773 773 771 770 769 768 767 765 765 763 761 760 756 749 748 750 751 753 755 756 757 758 760 762 763 765 767 769 772 777 781 779 779 781 777 777 782 788 798 790 777 772 766 765 766 767 771 777 778 775 776 777 776 779 785 791 791 792 789 786 792 792 789 789 790 793 795
804 803 801 799 798 796 795 793 792 790 789 788 786 785 784 782 781 780 778 776 775 773 772 771 770 769 768 766 765 765 762 762 759 751 749 749 750 751 753 755 756 758 759 760 762 764 765 767 769 771 778 783 780 779 782 778 777 780 783 790 778 769 773 766 762 764 764 768 774 776 776 779 776 774 779 783 792 794 790 783 782 787 787 787 788 789 792 794
804 802 800 798 797 795 793 792 790 789 788 786 785 783 782 781 780 779 778 776 774 773 771 771 770 768 768 765 765 764 763 767 759 748 750 749 750 752 753 755 756 758 759 761 763 764 766 767 769 773 779 783 783 782 782 774 773 779 777 775 769 769 773 765 761 764 764 768 772 775 777 776 774 776 778 780 788 788 781 777 778 781 781 783 785 787 791 794
803 801 799 797 795 794 792 791 789 788 786 785 784 782 781 780 779 778 777 775 773 772 771 770 769 768 767 765 765 763 765 767 755 747 750 749 751 752 753 755 756 758 759 761 762 764 766 767 772 777 780 782 784 783 779 771 771 781 776 768 766 767 769 763 761 764 763 769 774 774 772 771 776 780 777 777 780 777 772 772 775 778 779 781 784 787 790 793
802 800 798 796 795 793 791 789 788 786 785 783 782 780 780 778 777 777 775 774 773 771 770 769 769 768 766 765 765 764 765 760 748 748 750 749 751 752 754 755 755 758 759 760 762 764 766 769 773 776 780 783 783 779 775 770 770 780 778 768 765 763 764 761 760 763 763 768 770 767 769 772 778 779 776 777 775 771 770 771 773 778 779 782 785 787 790 792
800 799 797 795 794 792 790 788 786 785 783 782 780 779 778 777 775 775 774 773 772 771 770 768 768 767 766 765 765 765 764 755 747 748 749 749 751 751 754 755 756 757 758 760 760 763 766 770 772 773 781 782 778 777 773 773 774 776 776 768 763 761 759 757 759 762 763 766 766 767 772 774 773 773 775 777 773 769 769 771 774 778 781 784 786 787 790 793
799 798 795 794 792 791 789 787 785 784 782 780 779 777 776 775 774 773 772 772 770 770 769 768 768 766 766 765 766 766 758 749 747 748 748 749 750 751 753 753 755 757 757 760 759 763 765 768 770 769 777 777 774 775 771 777 779 770 769 765 763 761 756 755 759 761 763 765 765 770 775 774 769 770 777 774 769 769 768 772 775 778 784 785 787 788 790 792
798 796 794 792 791 789 787 786 784 782 780 778 777 776 775 773 772 771 770 770 769 769 768 768 767 766 766 765 767 765 753 746 748 748 748 749 750 751 752 752 754 755 757 759 759 761 761 764 766 763 771 773 772 773 770 775 772 762 763 762 760 759 753 754 759 760 763 765 764 770 776 775 769 774 781 773 766 767 769 774 776 779 785 786 787 788 789 792
797 795 793 791 789 787 785 784 782 780 779 777 775 774 772 771 770 769 768 768 767 767 767 767 766 766 766 765 768 762 748 746 748 747 749 749 749 750 750 751 752 754 756 758 758 759 760 762 761 763 771 772 770 772 768 766 763 759 761 762 759 756 754 755 759 761 763 767 765 767 775 777 774 778 779 770 765 767 771 776 777 780 784 785 787 788 790 792
796 794 792 790 788 786 784 782 780 778 776 774 773 771 770 769 768 767 766 766 766 766 766 766 766 766 765 766 765 756 746 748 748 747 748 747 749 749 749 750 751 752 754 756 757 757 760 761 761 768 771 769 774 776 767 759 760 760 761 767 764 756 758 757 758 760 762 767 763 764 782 786 781 779 772 766 766 767 772 777 779 781 783 784 786 788 790 791
795 793 791 789 787 784 782 780 778 776 774 772 770 769 768 766 765 764 763 764 764 764 764 765 766 765 766 765 755 748 746 748 747 747 748 747 748 749 749 750 750 751 752 753 755 756 760 762 763 767 766 769 776 771 762 757 760 763 762 768 770 765 764 757 755 759 762 766 757 763 789 794 781 774 768 765 767 770 776 779 779 782 783 784 786 787 790 790
794 792 790 788 786 784 781 779 776 774 771 770 767 766 765 763 762 761 761 762 762 763 763 764 765 765 766 759 746 745 746 746 747 746 746 748 749 749 750 750 751 751 752 753 755 757 760 761 763 766 765 769 769 764 765 765 764 766 768 769 774 778 771 757 755 761 767 766 754 763 788 788 777 771 766 764 765 770 778 779 779 781 782 784 785 786 788 789
794 791 789 787 785 783 780 778 775 772 770 768 765 764 763 761 759 758 759 760 760 762 762 763 764 764 766 757 745 745 745 744 745 745 745 747 748 749 749 750 751 751 752 754 756 758 759 761 766 770 768 764 765 771 776 774 769 770 777 780 779 780 773 761 757 759 766 766 758 768 786 783 774 769 763 762 765 770 777 779 779 780 781 783 784 785 787 788
793 791 789 786 784 782 779 776 774 771 769 766 764 762 761 760 758 757 758 758 759 761 762 763 763 764 767 757 745 744 745 744 744 744 745 745 746 747 747 748 750 752 754 754 756 757 758 761 764 767 768 766 771 777 780 782 781 776 781 786 782 779 778 769 761 756 757 764 766 770 780 781 773 766 762 762 764 769 776 779 779 780 780 781 783 784 785 787
792 790 788 786 783 782 779 776 774 770 767 765 763 761 760 759 757 757 757 758 760 761 762 763 763 765 761 749 746 748 745 744 743 743 744 744 745 745 746 749 750 751 753 754 756 757 758 762 765 767 768 771 772 775 788 797 795 786 783 785 782 779 780 775 768 759 755 764 771 771 775 777 769 763 763 762 763 769 774 777 778 778 779 779 781 783 783 785
791 789 787 785 783 781 778 776 773 769 767 765 763 761 759 759 759 758 758 759 761 761 764 763 763 768 762 749 749 750 745 744 743 742 743 743 744 744 745 747 748 751 755 758 758 759 762 763 767 773 773 774 773 777 794 799 792 789 787 786 785 781 780 779 773 765 760 766 771 774 777 774 768 764 763 761 762 768 771 773 775 776 778 779 779 781 782 783
790 788 786 784 781 779 777 775 773 770 766 764 763 761 759 759 759 759 759 760 761 763 765 764 762 766 763 753 749 746 743 743 742 741 742 742 743 744 744 745 747 753 760 765 764 762 764 768 773 780 780 778 777 778 785 785 781 784 785 786 788 786 782 777 772 763 761 771 773 774 776 772 770 768 765 762 761 766 771 771 774 775 776 777 778 779 779 781
789 787 785 783 781 778 776 774 773 770 767 764 762 760 761 764 764 763 760 758 759 758 759 759 758 758 756 751 747 745 744 742 742 741 740 741 742 744 745 747 750 757 762 767 769 763 763 776 782 782 781 777 775 775 775 774 775 779 782 785 786 788 784 774 770 762 757 770 774 769 771 769 767 765 762 762 762 767 771 773 775 775 775 775 776 777 777 778
788 786 784 781 779 777 775 774 772 769 767 766 763 763 766 769 771 770 764 758 754 753 754 754 754 754 751 748 746 745 747 746 742 740 740 740 741 747 751 752 758 765 765 765 767 763 766 781 783 776 775 772 771 772 772 773 774 777 781 784 785 787 783 772 768 762 755 768 771 764 768 768 763 762 758 759 763 765 766 769 771 771 772 772 772 774 775 775
787 785 782 780 778 776 774 772 771 769 767 766 765 766 768 768 769 768 766 763 755 749 752 752 752 752 747 745 744 744 752 753 747 741 740 741 743 752 755 756 764 768 765 765 769 773 778 782 777 770 769 770 771 770 772 774 775 778 780 784 787 783 779 772 765 759 756 766 768 763 767 766 759 758 756 754 757 757 756 758 762 765 769 770 770 771 772 774
786 783 781 778 776 774 772 771 770 768 767 766 766 767 767 767 766 765 765 768 760 750 750 752 752 751 747 745 742 743 752 754 752 745 739 742 747 751 755 759 765 767 767 769 775 782 787 780 769 766 768 770 773 771 773 776 777 779 780 785 787 779 782 783 770 761 758 762 764 762 765 763 758 759 757 752 750 751 752 754 757 760 764 764 763 765 768 771
785 782 780 777 774 772 770 769 768 768 767 766 766 766 767 766 766 765 764 768 766 754 747 748 747 747 746 743 740 744 750 749 749 746 739 743 749 750 754 759 765 768 768 769 773 780 781 770 761 764 769 771 775 774 775 780 781 779 777 781 782 776 781 782 773 766 762 760 757 761 773 771 763 766 763 755 753 753 753 756 759 760 760 762 763 764 765 766
784 782 779 776 773 771 769 769 767 767 766 765 766 766 766 766 764 764 765 772 771 756 746 746 745 745 741 740 741 742 746 746 744 742 738 740 747 752 755 756 762 770 770 768 773 778 774 763 760 766 769 770 776 776 775 778 784 782 774 771 773 773 776 775 772 772 776 775 758 761 788 788 768 765 766 759 759 759 756 758 761 761 761 763 765 765 764 764
783 781 777 775 773 769 768 767 766 767 765 765 765 765 765 765 764 763 768 779 775 756 749 750 748 746 741 741 741 740 751 751 740 737 738 739 741 747 756 759 760 766 766 766 772 774 768 760 761 767 769 770 775 777 772 772 784 787 770 761 765 769 773 773 774 778 785 782 761 757 783 792 777 769 765 761 762 761 759 760 760 760 761 760 760 761 761 762
782 779 776 775 772 770 769 767 768 767 765 766 765 764 764 763 763 762 769 787 780 758 753 752 748 746 742 742 740 745 760 755 740 739 738 739 740 742 756 762 761 763 759 764 776 772 763 761 763 766 769 773 778 777 769 767 782 782 761 756 764 768 772 772 773 779 778 773 765 758 767 784 786 772 760 760 766 766 764 763 760 758 758 757 756 757 758 759
780 777 775 773 771 771 769 768 769 766 765 766 763 763 763 762 763 763 776 795 780 755 752 751 745 743 741 741 740 747 754 749 749 749 736 738 743 744 756 760 760 763 756 764 780 771 760 763 765 764 770 774 774 769 761 763 775 768 752 756 762 764 767 766 769 776 773 776 780 767 762 780 786 769 757 760 768 772 767 762 759 755 754 754 754 755 754 755
778 776 773 771 770 769 769 769 768 766 766 765 763 764 762 761 763 767 784 792 771 752 752 749 745 745 743 744 745 746 746 746 753 749 738 742 744 744 755 757 756 762 758 763 772 765 759 760 758 761 768 768 763 757 754 761 766 755 749 756 758 761 764 763 769 772 773 784 786 769 763 777 781 768 763 767 770 769 762 756 754 751 752 753 753 754 753 753
776 774 772 770 769 769 769 769 766 766 765 763 764 763 760 763 768 780 795 787 767 757 753 749 750 749 748 750 751 750 749 749 748 745 746 749 747 746 751 751 753 760 762 762 764 763 759 754 752 758 761 758 754 752 751 755 754 748 752 758 759 764 764 765 770 770 781 793 781 765 762 771 778 772 765 764 759 753 752 752 751 750 751 751 750 750 750 750
774 773 771 769 769 769 769 768 766 765 765 764 764 761 762 769 776 791 795 775 764 764 756 753 753 749 751 754 756 754 753 752 749 750 757 759 758 759 759 761 762 765 769 769 766 764 760 757 757 758 755 754 753 753 751 751 750 752 757 761 767 772 770 774 776 775 792 797 774 762 763 769 778 771 758 751 740 737 742 746 747 746 745 744 744 744 744 745
773 772 771 769 769 769 768 767 765 765 765 764 763 761 767 778 786 793 786 768 770 772 762 758 754 751 753 754 757 757 755 757 754 756 765 769 771 772 774 780 779 778 782 781 775 769 765 764 763 759 754 755 759 761 758 753 751 758 761 764 778 786 785 791 791 788 796 789 769 764 765 770 773 758 747 745 736 732 733 733 736 739 738 739 740 740 740 742
773 771 770 769 768 768 767 766 765 765 764 762 763 764 771 786 793 790 782 775 775 769 759 758 755 753 755 757 760 758 758 763 760 761 768 771 776 778 777 780 779 781 785 785 784 780 774 770 766 764 761 760 763 770 773 764 759 764 765 767 782 793 800 806 803 799 795 781 769 766 766 773 771 750 738 737 730 726 725 724 728 731 734 737 737 737 738 740
772 771 770 769 768 767 766 766 765 764 763 762 764 768 777 792 793 783 781 779 770 761 759 760 757 755 757 759 761 759 764 771 767 768 773 774 782 786 783 780 778 779 783 785 789 789 788 785 776 773 773 767 765 770 774 770 767 767 762 763 771 778 791 799 795 794 790 780 774 770 770 774 767 749 737 731 726 722 720 721 724 727 730 732 735 739 740 741
772 770 769 768 767 767 765 765 764 763 763 761 765 774 786 797 792 783 782 777 767 764 763 761 761 764 766 765 763 759 763 773 773 775 782 785 791 795 792 788 784 783 785 789 792 792 794 792 779 772 772 768 768 767 763 766 772 766 758 765 771 770 776 781 779 779 777 778 779 773 768 763 753 747 741 736 732 728 725 723 724 727 728 730 736 739 739 740
771 769 769 768 767 767 765 765 764 763 763 761 769 783 790 790 786 782 778 771 769 769 765 765 768 775 778 774 771 765 761 767 773 779 787 791 794 797 795 791 787 786 787 790 794 796 798 792 777 773 772 767 769 767 761 766 773 768 766 774 771 766 771 776 777 775 774 784 786 774 767 758 752 753 751 745 742 739 736 732 728 726 726 730 734 733 734 735
770 769 769 769 768 767 766 765 764 763 763 763 774 786 785 780 778 776 772 767 768 768 768 777 779 782 787 784 781 775 766 768 774 782 794 796 795 798 796 792 788 787 787 788 791 795 797 793 782 779 779 771 766 765 762 763 768 774 779 775 764 760 765 770 778 783 786 793 787 772 772 778 781 778 766 758 757 750 745 742 736 730 726 728 729 727 727 727
770 770 770 770 769 768 766 766 765 764 765 768 778 783 780 779 777 773 771 768 769 769 774 785 785 783 787 788 787 780 772 776 781 786 796 800 800 800 798 795 789 787 786 783 787 793 795 795 788 783 783 776 767 767 770 768 766 771 775 768 765 773 776 774 780 788 794 799 789 775 780 794 799 793 779 775 773 763 754 748 743 738 731 726 723 721 721 722
772 772 773 772 770 769 768 768 766 765 769 777 785 784 780 780 777 773 771 769 770 774 779 785 784 784 787 787 789 784 778 784 788 790 798 804 804 799 796 796 792 789 787 783 790 796 795 797 795 787 782 779 775 780 790 790 777 769 772 773 774 781 784 783 784 786 790 797 793 784 791 800 794 786 783 782 780 773 765 757 748 741 733 725 720 717 717 718
775 776 777 773 771 770 769 768 768 771 775 782 787 784 780 781 778 774 771 770 772 777 782 785 784 787 790 787 788 786 785 789 792 795 801 805 806 801 796 796 793 791 789 787 793 797 795 800 803 794 785 785 791 796 802 803 794 786 789 794 793 789 786 784 786 790 793 798 797 793 804 806 786 776 779 780 778 776 772 765 753 743 733 723 717 715 714 713
778 781 780 773 770 771 769 771 776 778 781 784 785 782 781 781 780 777 773 772 774 777 780 784 786 789 792 791 791 789 790 796 796 799 805 806 808 806 798 795 794 792 791 792 797 799 800 806 808 805 800 800 803 800 794 796 798 798 801 805 806 801 798 799 799 798 798 802 803 804 810 803 780 772 775 774 775 776 772 768 758 747 738 727 718 713 712 711
781 786 782 773 771 770 771 779 783 783 784 786 785 783 781 781 782 782 779 776 778 779 780 784 789 792 794 794 795 793 796 803 804 804 809 809 810 809 802 796 794 794 795 800 803 799 801 807 810 811 810 808 805 798 794 794 793 795 800 803 805 804 808 817 817 811 807 805 804 806 807 794 776 771 772 771 772 772 769 766 760 753 745 736 726 718 713 710
787 788 780 774 773 770 774 785 788 787 788 786 784 783 782 785 787 786 784 783 784 785 788 791 792 795 797 796 796 797 801 808 811 809 810 811 808 806 803 797 795 796 798 804 805 798 800 812 814 812 812 810 803 796 794 794 795 802 805 803 805 806 808 813 814 811 814 815 814 815 808 788 773 771 772 771 771 770 766 763 761 757 751 743 737 729 722 716
793 791 783 777 774 771 779 793 795 794 793 788 788 788 786 788 792 792 792 792 791 792 795 799 797 797 800 797 797 801 803 808 814 812 811 813 809 803 801 798 796 797 798 803 804 799 806 820 820 817 818 815 810 808 806 804 807 814 813 808 808 807 805 807 807 807 814 819 820 823 814 791 776 774 775 774 773 772 768 764 762 760 756 752 746 738 732 727
793 792 788 783 777 776 785 794 795 797 797 794 795 797 794 794 795 796 796 797 797 797 799 803 801 799 801 799 801 805 804 806 814 815 813 814 810 803 801 801 799 797 797 798 798 799 810 821 820 823 828 827 828 833 829 824 822 820 817 814 811 809 808 809 811 815 819 819 818 822 816 797 781 776 777 777 777 776 772 766 763 762 761 759 755 749 742 738
794 797 797 791 785 786 790 793 792 795 797 797 800 802 803 802 799 796 796 799 801 800 802 805 802 800 803 804 808 813 811 810 814 817 818 817 813 808 805 803 801 799 797 796 796 801 813 822 822 825 830 831 835 836 830 827 829 826 822 818 814 812 811 810 815 820 820 818 817 815 813 805 790 782 783 782 781 781 777 772 769 767 765 763 762 759 752 747
798 804 806 802 797 796 796 796 796 796 797 799 803 806 808 808 805 801 799 801 803 801 804 808 806 806 810 810 813 819 819 818 818 820 822 820 815 811 806 804 805 803 800 800 800 804 815 825 825 825 828 829 830 830 826 826 829 827 824 821 816 814 812 812 817 816 813 819 819 807 806 811 799 788 788 788 785 785 783 779 776 774 771 768 766 763 758 754
802 806 808 807 807 806 805 803 800 799 799 800 804 808 811 811 811 810 806 804 804 804 807 813 814 814 815 813 816 822 823 823 823 823 824 822 818 814 810 807 808 808 806 806 805 807 816 826 826 825 828 828 827 827 826 826 827 825 825 823 819 817 816 816 815 809 808 817 816 803 803 808 801 793 794 792 787 787 787 784 781 777 775 773 770 767 763 761
805 807 807 806 807 808 807 805 803 803 803 804 807 811 813 813 814 814 810 808 810 809 810 818 821 819 817 815 817 823 825 826 829 827 824 824 823 820 817 815 812 810 809 810 810 810 816 823 823 823 827 828 826 826 825 826 828 827 826 823 820 819 817 814 812 808 805 807 806 802 803 804 801 801 800 795 791 789 787 785 782 780 780 779 775 773 770 768
809 811 810 808 808 807 806 805 805 807 808 809 813 815 814 816 816 814 812 812 816 816 813 818 822 820 819 817 818 823 824 823 827 827 823 824 824 822 822 820 817 813 812 813 813 811 816 823 822 821 826 828 826 826 826 827 829 829 826 822 820 818 816 813 811 808 807 808 805 802 804 806 804 801 799 797 794 790 788 787 787 786 786 784 781 778 775 773
811 813 813 812 812 811 809 809 809 812 813 814 816 816 816 817 816 815 814 813 815 817 815 816 819 819 819 819 820 822 821 819 820 820 818 820 821 819 819 819 817 817 816 816 816 814 817 823 822 823 829 830 826 826 826 825 826 827 827 826 823 822 820 816 812 811 814 818 813 808 812 816 809 800 799 799 796 794 794 793 793 793 791 789 787 784 781 778
810 812 813 812 814 816 815 813 813 816 818 816 816 816 817 817 815 814 817 816 813 813 814 813 814 817 820 821 820 818 817 815 815 814 813 814 814 814 815 815 815 817 818 818 819 818 819 822 824 828 834 832 829 828 826 825 828 829 829 827 824 822 821 817 814 815 818 820 819 818 820 819 811 803 803 804 802 801 800 798 799 798 796 793 791 788 785 782